Weather History for Tucson Davis Monthan, AZ

Change the Weather History Date:

Friday, July 5, 2013

  Actual Average Record
Temperature  
Mean Temperature 84 °F -  
Max Temperature 98 °F 101 °F 111 °F (1983)
Min Temperature 69 °F 74 °F 66 °F (1987)
Cooling Degree Days 18    
Growing Degree Days 34 (Base 50)    
Moisture  
Dew Point 65 °F    
Average Humidity 63    
Maximum Humidity 94    
Minimum Humidity 27    
Precipitation  
Precipitation 0.88 in - - ()
Sea Level Pressure  
Sea Level Pressure 29.83 in    
Wind  
Wind Speed 12 mph (SSE)    
Max Wind Speed 30 mph    
Max Gust Speed 50 mph    
Visibility 7 miles    
Events Fog , Rain , Thunderstorm    
Averages and records for this station are not official NWS values.
T = Trace of Precipitation, MM = Missing Value Source: NWS Daily Summary

Daily Weather History Graph

Daily Weather History Graph

Search for Another Location

Airport:

Trip Planner

Search our weather history database for the weather conditions in past years. The results will help you decide how hot, cold, wet, or windy it might be!

Date:

Astronomy

Jul. 05, 2013 Rise Set
Actual Time 5:22 AM MST 7:33 PM MST
Civil Twilight 4:54 AM MST 8:01 PM MST
Nautical Twilight 4:20 AM MST 8:36 PM MST
Astronomical Twilight 3:43 AM MST 9:12 PM MST
Moon 3:21 AM MST (7/5) 5:34 PM MST (7/5)
Length of Visible Light 15h 07m
Length of Day
14h 11m
Waning Crescent, 6% of the Moon is Illuminated
Jul 5
Waning Crescent
Jul 8
New
Jul 15
First Quarter
Jul 22
Full
Jul 29
Last Quarter

Hourly Weather History & Observations

Time (MST) Temp. Heat Index Dew Point Humidity Pressure Visibility Wind Dir Wind Speed Gust Speed Precip Events Conditions
12:58 AM 88.5 °F 86.5 °F 54.7 °F 31% 29.72 in 10.0 mi SE 6.9 mph - N/A   Partly Cloudy
1:58 AM 88.7 °F 88.3 °F 59.7 °F 38% 29.70 in 10.0 mi SSW 2.3 mph - N/A   Mostly Cloudy
2:58 AM 87.6 °F 87.2 °F 59.5 °F 39% 29.71 in 10.0 mi South 11.5 mph - N/A   Mostly Cloudy
3:58 AM 86.5 °F 86.1 °F 59.9 °F 40% 29.71 in 10.0 mi South 12.7 mph - N/A   Clear
4:58 AM 86.0 °F 85.7 °F 60.1 °F 41% 29.71 in 10.0 mi South 9.2 mph - N/A   Scattered Clouds
5:58 AM 84.9 °F 84.8 °F 59.9 °F 43% 29.73 in 10.0 mi SE 9.2 mph - N/A   Clear
6:58 AM 86.7 °F 86.8 °F 60.8 °F 42% 29.76 in 10.0 mi South 13.8 mph - N/A   Clear
7:58 AM 89.1 °F 88.8 °F 60.6 °F 38% 29.77 in 10.0 mi Variable 4.6 mph - N/A   Clear
8:58 AM 89.2 °F 89.0 °F 60.3 °F 38% 29.78 in 10.0 mi NNW 4.6 mph - N/A   Clear
9:58 AM 92.5 °F 92.2 °F 60.1 °F 34% 29.76 in 10.0 mi WNW 6.9 mph - N/A   Clear
10:58 AM 94.8 °F 94.5 °F 59.7 °F 31% 29.77 in 10.0 mi NNW 10.4 mph 17.3 mph N/A   Clear
11:58 AM 95.2 °F 94.7 °F 59.2 °F 30% 29.75 in 10.0 mi Variable 5.8 mph - N/A   Scattered Clouds
12:58 PM 98.8 °F 98.7 °F 59.5 °F 27% 29.70 in 10.0 mi NNW 15.0 mph 26.5 mph N/A   Scattered Clouds
1:37 PM 95.0 °F 93.7 °F 57.2 °F 28% 29.85 in 10.0 mi NNE 11.5 mph - N/A Thunderstorm Thunderstorm
1:48 PM 93.2 °F 93.3 °F 60.8 °F 34% 29.90 in 8.0 mi WNW 17.3 mph 29.9 mph N/A Thunderstorm Thunderstorm
1:49 PM 91.4 °F 92.1 °F 62.6 °F 38% 29.90 in 4.0 mi West 21.9 mph 29.9 mph N/A Rain , Thunderstorm Light Thunderstorms and Rain
1:50 PM 91.4 °F 92.1 °F 62.6 °F 38% 29.90 in 4.0 mi West 29.9 mph 47.2 mph N/A Rain , Thunderstorm Light Thunderstorms and Rain
1:54 PM 86.0 °F 89.4 °F 68.0 °F 55% 29.92 in 0.8 mi SW 19.6 mph - N/A Rain , Thunderstorm Heavy Thunderstorms and Rain
1:55 PM 86.0 °F 89.4 °F 68.0 °F 55% 29.92 in 0.5 mi South 17.3 mph - N/A Rain , Thunderstorm Heavy Thunderstorms and Rain
1:58 PM 86.0 °F 89.4 °F 68.0 °F 55% 29.81 in 0.2 mi SSE 16.1 mph 49.5 mph N/A Rain , Thunderstorm Heavy Thunderstorms and Rain
1:59 PM 75.2 °F - 68.0 °F 78% 29.95 in 0.2 mi SE 17.3 mph 49.5 mph N/A Rain , Thunderstorm Heavy Thunderstorms and Rain
2:04 PM 73.4 °F - 68.0 °F 83% 29.89 in 0.2 mi South 24.2 mph 33.4 mph N/A Rain , Thunderstorm Heavy Thunderstorms and Rain
2:08 PM 71.6 °F - 68.0 °F 88% 29.89 in 0.2 mi South 24.2 mph 33.4 mph N/A Fog , Rain , Thunderstorm Heavy Thunderstorms and Rain
2:09 PM 71.6 °F - 68.0 °F 88% 29.89 in 0.2 mi South 24.2 mph 33.4 mph N/A Fog , Rain , Thunderstorm Heavy Thunderstorms and Rain
2:14 PM 71.6 °F - 68.0 °F 88% 29.90 in 1.0 mi South 28.8 mph 38.0 mph N/A Rain , Thunderstorm Heavy Thunderstorms and Rain
2:19 PM 69.8 °F - 68.0 °F 94% 29.91 in 2.0 mi South 23.0 mph 38.0 mph N/A Rain , Thunderstorm Heavy Thunderstorms and Rain
2:24 PM 69.8 °F - 68.0 °F 94% 29.92 in 3.0 mi South 18.4 mph 33.4 mph N/A Rain , Thunderstorm Thunderstorms and Rain
2:41 PM 73.4 °F - 68.0 °F 83% 29.95 in - North - - N/A Thunderstorm Thunderstorm
2:57 PM 73.4 °F - 66.2 °F 78% 29.95 in - North - - N/A Thunderstorm Scattered Clouds
2:58 PM 73.4 °F - 66.2 °F 78% 29.83 in - North - - 0.84 in Thunderstorm Scattered Clouds
3:02 PM 73.4 °F - 66.2 °F 78% 29.94 in - North - - N/A Thunderstorm Thunderstorm
3:32 PM 73.4 °F - 68.0 °F 83% 29.93 in - North - - N/A   Clear
3:40 PM 73.4 °F - 68.0 °F 83% 29.93 in - North - - N/A Thunderstorm Thunderstorm
3:46 PM 73.4 °F - 68.0 °F 83% 29.94 in 10.0 mi SE 16.1 mph - N/A Rain , Thunderstorm Light Thunderstorms and Rain
3:55 PM 73.4 °F - 68.0 °F 83% 29.93 in 10.0 mi SE 17.3 mph - N/A Rain , Thunderstorm Light Rain
3:58 PM 73.0 °F - 68.7 °F 86% 29.81 in 10.0 mi SE 16.1 mph - 0.00 in Rain , Thunderstorm Light Rain
4:07 PM 73.4 °F - 69.8 °F 88% 29.93 in 10.0 mi SE 15.0 mph - N/A Rain , Thunderstorm Light Thunderstorms and Rain
4:22 PM 73.4 °F - 68.0 °F 83% 29.93 in 10.0 mi SE 9.2 mph - N/A Rain Light Rain
4:58 PM 73.9 °F - 68.7 °F 84% 29.74 in 10.0 mi ENE 12.7 mph - 0.04 in   Light Drizzle
5:29 PM 73.4 °F - 69.8 °F 88% 29.83 in 10.0 mi SSW 9.2 mph - N/A   Clear
5:58 PM 75.6 °F - 67.6 °F 76% 29.70 in 10.0 mi SSE 8.1 mph - 0.00 in   Clear
6:58 PM 77.5 °F - 68.0 °F 72% 29.73 in 10.0 mi ENE 2.3 mph - N/A   Partly Cloudy
7:58 PM 77.2 °F - 69.1 °F 76% 29.73 in 10.0 mi SE 8.1 mph - N/A   Partly Cloudy
8:58 PM 77.4 °F - 67.1 °F 71% 29.75 in 10.0 mi SE 11.5 mph - N/A   Clear
9:58 PM 77.0 °F - 67.6 °F 73% 29.77 in 10.0 mi SE 9.2 mph - N/A   Clear
10:58 PM 77.5 °F - 66.9 °F 70% 29.75 in 10.0 mi ESE 8.1 mph - N/A   Clear
11:58 PM 77.2 °F - 65.1 °F 66% 29.75 in 10.0 mi SSE 8.1 mph - N/A   Clear